This is the latest recevied weather packets stored in our database for station/object K1AWR. If no packets are shown the sender has not sent any weather packets the latest 10 day(s).
| Time | Temp. | Humidity | Pressure | Rain* | Wind** | Luminosity | Snow |
|---|---|---|---|---|---|---|---|
| 1788558026 | 26.67° C | 53% | 1010.1 hPa | 0 mm | - | 77 W/m² | - |
| 1788557724 | 27.22° C | 53% | 1010 hPa | 0 mm | - | 64 W/m² | - |
| 1788557422 | 27.78° C | 52% | 1010 hPa | 0 mm | - | 104 W/m² | - |
| 1788557121 | 28.89° C | 51% | 1010 hPa | 0 mm | - | 123 W/m² | - |
| 1788556816 | 28.33° C | 53% | 1010.1 hPa | 0 mm | - | 123 W/m² | - |
| 1788556516 | 28.33° C | 51% | 1010.3 hPa | 0 mm | - | 150 W/m² | - |
| 1788556212 | 28.33° C | 52% | 1010.2 hPa | 0 mm | - | 183 W/m² | - |
| 1788555911 | 27.78° C | 50% | 1010.1 hPa | 0 mm | - | 172 W/m² | - |
| 1788555607 | 28.33° C | 48% | 1010.3 hPa | 0 mm | - | 184 W/m² | - |
| 1788555302 | 28.33° C | 51% | 1010.1 hPa | 0 mm | - | 243 W/m² | - |
| 1788554999 | 28.33° C | 51% | 1010 hPa | 0 mm | - | 234 W/m² | - |
| 1788554694 | 28.33° C | 47% | 1010 hPa | 0 mm | - | 205 W/m² | - |
| 1788554390 | 27.78° C | 47% | 1010.2 hPa | 0 mm | - | 272 W/m² | - |
| 1788554086 | 27.78° C | 47% | 1010.3 hPa | 0 mm | - | 142 W/m² | - |
| 1788553782 | 27.78° C | 48% | 1010.1 hPa | 0 mm | - | 327 W/m² | - |
| 1788553478 | 27.22° C | 49% | 1010.3 hPa | 0 mm | - | 74 W/m² | - |
| 1788553174 | 27.78° C | 50% | 1010.3 hPa | 0 mm | - | 68 W/m² | - |
| 1788552869 | 28.89° C | 47% | 1010.3 hPa | 0 mm | - | 74 W/m² | - |
| 1788552564 | 30° C | 44% | 1010.3 hPa | 0 mm | - | 100 W/m² | - |
| 1788552262 | 29.44° C | 45% | 1010.2 hPa | 0 mm | - | 373 W/m² | - |
| 1788551958 | 28.89° C | 47% | 1010.1 hPa | 0 mm | - | 378 W/m² | - |
| 1788551655 | 29.44° C | 44% | 1010.3 hPa | 0 mm | - | 393 W/m² | - |
| 1788551350 | 30.56° C | 46% | 1010.2 hPa | 0 mm | - | 412 W/m² | - |
| 1788551050 | 30° C | 46% | 1010.4 hPa | 0 mm | - | 416 W/m² | - |
| 1788550745 | 30° C | 47% | 1010.3 hPa | 0 mm | - | 457 W/m² | - |
* Rain latest hour (hover to see other rain measurements)
** Current wind speed in m/s (hover to see current wind gust speed)